Theta_e
312 312 313 313 313 315 316 316 316 316 316 316 316 314 312 311 311 314 316 314 315 314 313 315 314 315 315 315 317 317 319 321 322 326 332 334 333 332 334 338 338 337 337 340 342 340 338 339 340 339 339 339 339 340 340 340 341 341 340 340 339 339 339 338 338 337 336 336 336 336 336 337 336 336 336 335 334 335 335 334 335 337 338 338 338 338
312 311 313 313 314 315 316 317 317 318 319 317 315 312 311 311 311 315 316 315 315 313 313 315 314 314 315 316 317 317 318 319 321 324 329 331 331 331 334 337 336 335 334 336 340 341 338 337 339 339 339 340 340 340 341 341 340 340 339 340 339 339 339 338 338 337 336 336 336 336 337 337 337 336 336 335 334 334 335 335 336 337 338 338 339 338
313 312 313 314 314 315 317 319 319 319 319 317 315 312 310 311 312 314 316 316 315 313 313 314 313 314 315 316 317 317 318 320 320 321 324 326 327 329 331 335 336 337 338 337 338 341 340 338 339 340 340 340 340 340 341 341 341 340 339 339 339 338 338 338 337 336 335 335 336 336 337 337 338 337 335 335 334 334 334 335 337 338 338 338 338 337
313 313 313 314 314 316 318 319 320 319 318 317 315 311 309 312 312 310 314 317 315 314 314 314 314 314 316 316 316 317 317 318 319 319 322 324 327 328 327 334 337 338 341 340 337 339 341 339 338 339 341 341 341 341 342 342 342 340 340 340 339 336 336 337 336 336 336 335 336 337 336 336 336 335 334 333 333 333 333 334 337 337 337 336 335 335
314 315 314 314 315 317 318 319 320 317 315 316 316 313 311 313 312 311 314 316 315 315 316 315 311 312 316 316 316 317 317 318 318 318 318 321 325 327 326 331 336 338 341 341 339 338 340 341 340 340 340 341 342 342 342 342 342 341 340 340 338 336 336 336 335 336 336 335 335 336 336 335 334 334 334 333 333 334 332 332 335 335 335 335 333 333
313 316 316 315 316 317 317 317 317 316 314 314 316 316 314 314 314 314 315 314 312 311 314 314 308 309 313 314 316 316 316 317 318 318 318 319 319 323 325 327 334 338 339 340 339 337 341 343 342 342 341 341 342 343 343 342 341 341 340 340 338 336 336 336 336 336 335 334 335 335 335 335 334 334 334 333 333 333 331 331 334 334 333 333 332 333
313 315 316 315 316 316 315 315 315 316 313 311 315 316 316 316 315 314 313 311 309 309 314 315 310 308 311 313 316 316 316 317 317 318 317 318 318 319 324 325 331 336 335 337 339 339 342 344 344 344 343 342 342 342 343 342 342 340 338 338 338 335 335 335 336 336 334 334 336 336 335 335 334 334 334 333 333 332 332 333 334 333 332 332 332 332
315 316 316 316 315 314 313 313 315 316 313 311 314 316 316 315 314 314 312 310 310 311 314 315 312 309 308 312 317 317 316 316 317 319 317 318 318 317 322 324 327 332 332 335 339 339 340 343 345 345 344 343 342 342 343 341 341 337 334 334 336 336 336 334 334 334 334 335 335 334 334 334 333 333 333 333 332 331 331 333 333 332 331 331 331 332
317 316 317 316 314 313 313 313 314 315 313 313 315 315 315 315 314 313 312 310 312 311 309 311 313 311 308 311 317 317 317 317 317 318 317 317 317 317 320 322 324 331 334 336 338 338 338 341 344 344 344 344 342 342 340 336 335 333 332 333 334 336 337 335 334 334 335 335 334 332 332 333 333 333 332 332 331 331 331 332 332 330 329 331 332 332
316 316 316 316 314 314 314 314 315 315 314 314 315 315 314 314 314 314 313 310 310 310 308 310 311 310 309 310 313 314 314 316 317 318 321 321 320 320 319 321 321 327 335 336 334 335 337 339 341 343 343 340 336 335 333 331 332 332 332 332 332 334 336 335 335 334 334 334 334 333 333 334 333 331 332 331 330 330 330 332 332 330 329 331 332 331
316 316 316 315 315 315 314 315 315 315 316 315 314 314 313 313 314 314 314 310 309 310 309 310 311 310 310 310 312 317 317 319 323 325 328 328 326 324 323 323 319 321 333 335 332 332 336 338 340 341 338 331 329 330 330 330 331 332 332 331 331 333 334 334 334 333 333 333 333 333 333 333 332 331 330 330 330 330 330 331 331 330 329 330 331 331
314 316 315 315 315 315 314 314 315 315 315 314 314 313 311 311 312 312 311 311 311 310 310 311 311 309 309 310 317 324 324 325 328 329 329 329 328 326 324 323 321 328 333 333 330 331 335 339 341 338 331 327 326 328 330 331 330 331 332 331 331 331 332 333 333 333 333 333 333 333 333 333 332 330 329 329 330 330 330 330 330 329 329 329 329 330
314 315 315 314 314 315 315 314 314 315 315 314 313 311 310 310 312 312 311 311 312 311 311 311 310 310 309 313 322 326 325 327 328 327 328 329 329 326 326 324 323 329 331 328 331 334 337 341 339 335 331 329 327 328 331 331 329 330 331 331 331 331 332 332 333 333 332 332 332 332 333 333 331 330 329 328 330 330 330 330 329 329 328 329 329 329
313 315 314 314 314 314 315 313 312 313 313 313 312 310 310 310 313 315 313 312 312 311 311 312 312 310 309 317 327 327 326 327 329 328 328 330 330 328 327 325 323 330 332 330 334 337 339 340 337 333 332 332 329 329 332 331 330 331 330 330 330 332 332 332 333 333 331 332 332 332 332 331 330 329 329 329 329 329 330 330 329 329 329 329 329 329
312 314 315 314 314 314 315 314 313 314 313 313 313 311 310 310 312 314 313 312 313 311 311 313 313 310 311 321 329 328 327 329 329 330 331 332 332 331 330 328 329 334 335 335 338 339 338 338 337 334 332 333 332 331 332 332 332 332 331 331 331 331 332 332 332 332 332 333 333 332 332 330 329 328 328 329 329 328 330 329 330 330 329 329 329 328
312 313 315 315 315 315 314 314 314 314 312 313 313 312 310 311 312 311 312 313 313 312 312 312 312 315 320 326 329 328 328 329 329 332 334 333 333 333 333 332 334 334 333 334 338 338 337 337 337 335 333 335 334 332 332 333 333 333 333 333 332 331 332 332 332 332 333 334 333 333 332 330 328 328 328 330 329 329 330 329 330 329 328 328 328 328
313 313 315 315 315 315 315 315 314 314 313 313 312 310 311 314 314 311 311 313 314 314 313 311 312 317 323 326 327 329 330 329 329 332 333 333 334 335 336 335 336 336 334 334 336 336 336 335 336 337 335 336 335 333 332 333 334 334 334 334 334 332 332 332 332 332 333 334 333 333 331 329 329 329 330 330 329 330 330 329 329 329 328 328 328 328
314 313 315 315 315 315 314 315 314 314 315 313 312 312 313 314 314 313 313 313 315 315 312 309 310 313 317 322 327 330 331 331 330 331 332 333 333 333 334 334 335 336 335 335 336 336 335 336 336 336 336 337 336 334 333 334 334 334 334 334 334 333 332 332 333 333 334 335 334 333 331 330 330 330 331 330 329 330 330 329 329 328 329 329 328 329
316 313 314 315 314 314 314 314 314 314 314 314 314 315 314 312 312 313 313 314 316 315 313 311 309 313 319 324 328 330 332 332 332 331 331 332 332 331 330 330 332 333 334 336 337 335 335 336 337 335 335 336 336 335 335 334 334 334 334 334 333 333 332 332 333 334 334 334 334 332 331 330 330 330 331 330 329 330 329 329 329 328 329 329 328 328
318 314 314 315 314 314 314 313 311 312 313 314 314 315 314 314 314 314 313 314 314 314 314 311 310 319 326 327 328 331 332 332 332 331 330 331 332 331 331 331 332 334 334 335 335 334 333 335 335 334 335 335 334 335 334 333 334 334 334 334 333 333 333 333 333 334 333 333 333 332 331 331 331 330 330 329 328 329 329 329 329 328 329 329 328 327
317 316 314 315 314 313 312 312 312 312 313 312 312 312 313 314 314 315 314 314 313 314 314 311 313 323 329 328 329 331 331 331 331 331 331 332 332 331 331 332 332 333 333 333 334 333 333 334 333 333 334 334 333 334 334 333 333 333 333 333 333 333 334 334 333 334 333 333 334 333 332 333 332 331 330 328 328 328 328 328 328 328 328 329 328 327
316 316 314 313 313 311 312 313 313 313 314 314 312 311 312 313 314 315 314 314 314 314 315 314 317 326 328 326 328 330 330 331 330 331 331 331 330 329 329 329 329 331 331 331 332 331 332 333 333 332 333 332 329 330 332 333 333 333 333 333 332 333 334 334 333 333 333 333 334 334 333 334 334 332 330 328 328 328 328 327 328 328 328 328 328 327
317 317 314 313 314 315 314 314 315 316 316 316 315 314 315 313 313 314 314 316 316 315 314 312 316 326 328 326 328 330 330 330 330 331 331 329 327 327 327 326 326 328 328 329 329 329 331 333 331 329 329 329 328 328 329 331 332 332 332 333 333 333 333 333 332 332 333 333 333 334 334 334 334 333 330 328 328 328 328 328 328 329 328 328 328 327
317 318 315 314 315 316 317 316 316 317 316 316 317 317 316 315 316 316 316 318 317 314 315 314 318 326 328 327 330 331 329 329 328 328 329 328 327 325 324 324 325 326 327 327 327 327 328 330 330 329 328 328 329 328 327 328 329 330 330 331 333 333 333 333 332 331 332 332 333 333 332 333 333 332 330 328 328 328 328 328 328 328 327 327 327 326
317 317 316 315 315 317 319 317 315 316 315 315 316 317 317 317 318 320 321 322 318 314 315 317 321 327 327 327 330 329 328 327 325 325 325 325 325 323 322 323 323 324 325 325 325 325 326 327 328 328 328 329 330 328 329 329 328 329 330 330 332 333 333 333 331 329 331 333 333 333 332 332 333 331 329 328 328 328 328 328 327 327 326 325 325 326
317 318 317 316 317 318 319 318 317 318 316 315 317 320 320 318 317 319 318 318 317 315 315 318 322 327 329 329 329 328 327 325 323 322 321 321 322 321 321 321 321 322 323 323 323 324 324 324 325 326 325 326 327 327 329 329 328 328 328 328 330 332 332 332 330 328 330 332 332 331 331 331 330 329 329 328 328 328 328 328 327 326 326 324 324 325
319 321 320 320 322 321 320 319 319 319 318 318 319 319 320 319 320 321 316 315 318 318 319 324 326 329 330 329 327 326 324 324 322 320 319 319 319 319 319 319 319 320 320 320 320 320 321 321 322 323 322 322 323 323 324 326 327 327 327 327 329 330 331 331 329 327 329 331 331 331 331 331 330 330 329 328 328 328 328 328 327 326 325 323 323 323
321 322 322 324 324 321 319 319 318 318 320 322 323 321 321 321 322 323 320 320 323 319 320 327 330 329 329 326 323 322 322 321 320 318 317 318 317 317 316 316 317 318 318 317 317 317 317 316 316 318 318 318 319 319 320 321 323 326 326 327 328 329 329 329 327 327 329 330 330 330 331 332 332 333 330 328 327 327 327 327 326 326 325 324 322 321
322 321 322 324 323 320 319 319 318 319 322 324 325 325 325 325 326 328 327 326 327 323 322 327 330 329 326 322 319 318 318 318 317 315 315 316 315 315 314 314 314 315 315 315 315 315 314 314 314 314 314 314 315 317 318 318 319 322 323 325 327 326 326 327 327 328 329 330 329 329 330 331 332 332 331 328 327 326 326 326 326 326 325 323 321 319
322 322 322 323 322 320 320 319 318 320 322 322 322 322 324 326 326 327 327 326 327 328 326 327 327 324 319 317 316 315 314 315 314 314 313 313 313 313 312 312 311 311 312 313 313 313 312 312 313 312 312 312 312 314 316 317 317 318 319 321 324 325 325 326 327 328 328 328 327 327 329 330 330 330 330 329 327 326 326 326 326 326 325 323 321 320
320 321 322 322 321 321 321 319 318 321 323 322 320 320 321 324 324 324 324 325 327 329 327 326 325 320 315 314 314 313 313 313 312 312 312 311 311 310 309 309 309 309 310 310 310 311 311 311 311 311 310 310 310 311 313 314 316 316 316 318 321 324 325 326 327 327 327 327 327 327 327 328 328 328 328 328 327 326 326 325 325 324 323 322 321 321
319 320 322 321 321 322 322 320 319 321 322 321 318 317 318 321 322 322 321 322 324 326 327 327 326 321 315 313 313 312 312 311 310 310 310 309 308 308 307 307 307 307 308 308 308 309 309 309 309 310 310 309 308 309 310 312 313 313 314 315 317 319 321 323 324 325 326 326 326 326 326 326 326 326 327 327 326 326 326 325 325 324 324 324 323 323
320 321 320 321 321 322 322 321 320 321 323 321 316 314 315 317 319 321 320 319 319 322 323 324 322 319 315 313 313 312 310 309 308 308 308 308 307 306 306 306 306 306 306 306 306 307 307 307 307 308 308 308 308 308 308 309 310 310 311 312 314 316 317 318 320 321 322 324 324 324 324 325 325 324 324 324 323 323 323 324 323 323 322 321 322 321
321 320 320 321 320 321 323 322 321 322 323 319 313 312 314 315 317 319 319 317 317 318 319 318 317 315 313 312 311 309 308 306 306 305 305 306 306 305 305 305 304 304 304 304 304 305 306 307 306 306 307 307 307 307 308 308 308 309 309 310 312 313 313 313 314 316 317 320 322 322 322 323 323 322 321 320 319 318 319 319 319 318 318 317 317 318
320 319 319 320 319 320 322 322 323 323 319 314 311 311 312 313 314 316 316 315 314 316 316 315 313 311 309 307 306 305 305 304 304 303 303 304 304 304 304 303 303 302 302 302 302 303 305 305 305 305 305 306 306 307 307 307 307 307 308 308 309 310 310 310 310 311 313 315 317 318 319 319 319 319 318 317 317 316 316 316 316 317 317 317 316 316
319 319 318 318 319 319 320 321 323 320 314 312 312 310 310 312 313 314 316 314 311 312 314 313 311 309 307 306 305 305 304 304 303 303 303 303 303 303 303 303 302 302 301 302 302 302 303 304 304 304 304 304 305 305 306 307 307 307 307 307 306 306 307 307 308 308 309 310 311 314 315 315 316 316 315 315 315 316 315 315 316 316 317 317 316 316
319 319 318 318 319 319 319 319 318 317 315 313 312 310 310 310 310 311 315 314 310 310 312 312 309 308 307 306 306 305 305 305 304 303 303 303 302 302 302 302 302 302 302 302 302 302 302 302 303 303 303 303 303 303 304 305 306 306 306 306 305 304 304 305 305 306 306 306 307 309 311 312 313 313 313 313 314 314 314 314 314 315 316 316 315 314
317 318 318 319 318 316 318 317 317 319 318 313 311 310 309 309 308 308 312 314 310 308 310 310 309 307 306 306 306 306 308 310 307 304 302 302 302 302 302 302 302 302 302 302 302 301 301 302 302 302 303 303 302 302 302 303 304 304 304 304 304 303 303 303 303 304 304 304 304 305 307 308 309 309 310 310 310 311 311 312 312 312 313 313 313 312
316 317 318 318 317 315 317 318 318 319 316 312 310 310 309 310 308 308 313 315 310 308 309 308 308 307 307 307 307 308 311 312 308 303 301 301 301 301 301 301 301 301 301 301 301 301 301 301 301 301 302 302 302 301 301 301 302 302 302 302 302 303 302 302 302 303 303 303 304 304 305 305 306 306 306 307 307 308 308 309 309 310 310 311 310 309
316 316 316 316 316 316 317 316 315 314 312 310 309 309 309 309 308 312 318 316 309 308 309 308 307 307 307 308 309 308 310 310 306 302 301 301 301 301 301 301 300 300 300 300 300 300 300 300 300 300 301 301 301 301 301 301 301 301 301 301 301 302 302 301 301 301 302 303 303 304 304 304 304 304 303 304 304 305 306 307 307 307 307 308 307 307
314 314 315 316 316 315 316 315 313 312 310 308 309 309 309 310 312 316 317 311 307 308 309 307 307 308 307 309 309 307 306 305 303 301 301 301 301 301 301 300 300 300 300 300 300 300 300 300 299 299 300 300 300 301 300 300 300 300 300 301 301 301 301 301 301 301 301 301 302 302 303 303 303 303 302 302 302 302 303 304 304 305 305 305 306 306
314 314 314 314 314 315 315 314 313 312 309 307 308 309 308 312 315 313 309 307 307 309 308 307 308 308 308 307 306 304 303 303 302 301 301 301 301 301 300 300 300 300 299 299 299 299 300 299 299 298 299 299 299 300 300 300 299 299 299 299 300 300 300 300 301 301 301 301 301 301 302 302 302 303 303 303 303 302 302 302 302 303 303 303 304 304
312 313 313 313 313 314 314 314 315 313 308 306 308 309 308 310 310 306 305 307 309 308 308 308 308 307 306 305 303 303 302 302 301 301 300 300 301 300 300 300 299 299 299 299 299 299 299 299 299 299 299 298 298 298 299 299 299 299 299 299 299 299 300 300 300 300 301 301 301 301 302 302 302 302 303 303 304 304 304 303 303 303 303 304 304 305
311 312 313 312 311 313 314 312 311 309 306 306 308 308 307 306 305 304 305 307 307 307 307 307 306 306 304 303 303 303 302 301 301 300 300 300 300 300 300 299 299 299 298 298 298 299 299 299 299 299 299 298 298 298 298 298 299 299 299 299 299 299 299 299 299 300 300 301 301 302 302 302 303 303 303 303 303 304 304 304 304 304 305 305 306 306
310 310 311 310 309 309 309 308 306 306 306 306 306 306 306 305 304 304 304 305 305 306 306 305 305 305 304 303 303 303 302 301 300 300 300 300 300 300 299 299 299 298 298 298 298 298 298 298 298 298 298 298 298 298 298 298 299 299 299 299 299 299 299 299 299 299 300 300 301 302 302 303 302 302 303 303 303 303 304 304 304 304 304 305 305 305
309 309 309 308 307 307 307 306 306 306 306 306 305 305 305 304 303 303 302 302 303 304 304 304 304 303 303 303 302 302 302 301 300 300 300 300 300 300 299 299 298 298 298 298 298 298 298 298 298 298 298 298 298 298 298 298 298 298 299 298 298 299 299 299 299 299 299 300 300 301 301 302 302 302 302 302 302 302 303 303 303 303 304 304 304 304
307 308 308 308 308 308 307 307 306 306 306 306 306 305 304 303 302 302 301 301 302 303 302 302 302 303 303 303 302 302 302 300 300 300 300 300 300 300 299 299 299 298 298 298 299 299 299 298 298 298 298 298 298 299 299 298 298 299 299 299 298 299 299 299 299 299 299 299 300 300 300 301 301 302 302 302 302 302 302 303 303 302 302 303 303 304
306 307 307 307 307 308 307 306 306 305 305 305 305 305 304 303 302 301 301 301 301 301 302 302 302 302 303 302 302 302 302 301 301 300 300 300 300 300 300 300 299 299 299 299 299 299 299 299 299 299 299 299 299 299 299 299 299 300 300 299 299 299 299 300 300 300 300 300 300 300 300 301 301 301 301 300 300 300 300 301 302 302 301 299 299 301
306 306 305 305 306 306 306 305 305 305 304 304 304 305 304 304 303 302 302 302 301 301 301 301 301 301 302 302 303 302 302 301 301 301 300 301 301 300 300 300 299 300 300 299 299 299 299 299 299 299 299 299 299 299 300 299 300 300 300 300 300 300 300 300 301 301 301 301 301 301 301 301 301 301 301 301 300 299 298 298 299 300 299 297 296 296
307 306 305 305 306 306 306 306 306 305 304 304 304 304 304 304 304 303 303 302 302 301 301 301 301 301 301 302 302 302 301 301 301 301 301 301 301 301 300 300 300 300 300 299 299 299 299 299 299 299 299 299 299 299 300 300 300 300 300 300 300 301 301 301 301 301 300 300 301 301 301 301 301 301 301 301 301 300 299 297 297 298 298 297 296 296
306 306 306 306 305 305 306 306 305 305 304 303 303 303 303 303 303 303 303 303 302 302 302 301 300 300 301 301 301 301 301 301 301 301 301 301 301 301 301 301 301 300 300 300 300 299 299 299 299 299 299 299 299 299 300 299 300 300 299 300 300 300 300 301 301 301 300 300 299 300 300 301 301 301 301 301 302 302 301 300 298 297 298 297 297 297
Wind_Speed
8 7 8 9 10 12 13 13 14 11 6 7 7 5 8 8 6 6 4 4 2 5 8 9 11 12 12 15 12 9 10 12 13 12 9 9 12 14 13 10 8 7 7 9 11 12 14 15 15 15 15 16 15 15 17 19 20 18 18 20 18 17 17 16 16 16 18 16 12 11 10 10 11 10 9 10 11 12 14 14 11 10 9 9 9 9
8 8 10 12 13 13 12 13 13 8 4 7 9 7 8 8 8 7 5 4 4 5 7 9 11 13 13 13 12 10 11 12 14 14 11 13 14 11 9 11 11 8 7 9 10 11 15 16 16 15 15 16 16 16 18 20 20 18 19 20 19 19 18 18 16 15 18 17 13 13 12 10 10 9 8 9 9 9 12 12 10 9 9 9 9 9
8 9 11 13 13 11 7 6 7 6 7 8 8 9 8 7 10 7 6 5 6 4 6 10 10 11 13 12 13 14 11 10 15 16 13 15 15 11 12 11 12 9 9 9 8 11 16 17 17 16 15 16 17 17 18 20 20 20 20 19 20 20 18 19 18 17 19 16 13 13 13 11 9 8 8 8 9 8 10 9 9 8 9 9 9 9
7 9 14 14 10 8 6 5 6 7 8 8 8 9 8 9 12 7 4 6 6 5 8 10 8 9 10 11 13 15 13 11 14 17 16 16 14 15 17 11 13 10 11 10 10 12 16 18 18 17 16 17 17 18 20 21 21 21 21 20 20 20 20 20 19 18 16 13 13 12 12 12 9 9 9 8 9 8 9 10 9 8 8 8 8 8
9 5 8 12 8 7 9 9 9 7 7 10 11 10 9 11 13 6 4 5 5 8 9 9 8 7 10 12 13 13 14 13 13 16 17 17 15 15 17 13 17 15 13 12 12 13 15 17 19 18 18 18 19 20 21 22 22 22 22 22 19 19 21 20 17 19 17 13 14 13 11 11 9 9 9 8 9 9 11 12 9 8 8 8 7 7
12 3 4 7 8 9 11 9 11 9 7 9 11 13 13 12 12 7 7 8 6 9 10 11 9 7 10 15 15 13 14 15 14 15 17 18 17 15 16 13 16 16 15 14 13 13 15 17 19 20 20 20 21 23 22 21 21 21 21 20 16 16 19 16 14 19 17 13 14 13 12 11 8 8 8 9 12 11 12 12 9 7 7 8 7 7
10 7 8 8 8 11 13 10 12 11 8 8 9 12 13 11 11 10 12 10 7 8 6 9 9 7 9 12 13 13 14 16 15 15 17 16 16 16 15 14 13 15 13 11 11 13 15 16 18 20 22 23 23 22 21 19 19 19 16 13 14 15 16 15 17 17 14 12 11 11 11 10 9 9 7 8 10 10 12 10 9 7 7 7 6 6
8 7 8 10 10 10 11 9 11 12 9 9 6 6 9 10 11 12 12 10 8 9 4 7 9 9 8 8 7 9 13 15 14 14 17 16 15 16 15 16 14 15 15 10 10 13 15 16 18 20 22 24 22 19 17 16 14 15 16 13 15 17 14 13 16 15 13 12 10 10 11 10 10 8 7 8 9 10 11 8 9 8 7 7 6 6
10 10 8 10 11 9 9 9 11 11 10 10 4 2 6 9 11 11 11 9 9 10 7 8 10 8 8 8 7 9 12 12 12 14 16 16 17 17 16 18 15 13 16 14 13 13 15 18 20 20 20 18 15 12 13 12 9 12 17 18 15 13 12 12 14 16 16 13 10 12 11 10 9 8 9 10 8 10 10 8 8 7 7 7 6 6
8 10 10 11 10 8 9 9 8 9 10 9 3 4 8 9 10 10 9 9 9 10 10 10 10 8 8 8 8 10 12 11 11 11 7 7 9 11 11 14 16 14 15 14 13 12 14 17 20 18 12 4 11 15 14 13 10 11 15 18 14 13 14 14 16 19 21 18 14 15 15 12 12 11 11 11 8 11 10 8 8 7 7 7 6 6
5 4 4 8 9 8 10 10 9 10 10 6 2 6 10 9 9 9 7 8 8 9 11 13 15 11 8 8 5 3 3 5 5 2 4 7 5 6 7 9 15 12 11 12 13 11 9 11 12 7 9 17 25 26 19 16 18 13 14 18 17 18 19 17 18 21 23 22 19 19 18 14 13 12 12 12 10 12 10 9 9 8 8 7 7 7
7 6 5 7 10 10 10 11 11 11 11 7 5 7 9 7 8 7 7 7 7 8 10 14 17 13 9 7 2 3 4 3 3 3 5 9 9 8 8 10 13 5 9 9 10 9 6 7 5 12 19 17 17 20 20 21 24 21 20 23 20 19 20 18 17 21 24 23 20 20 18 15 14 13 14 12 12 12 11 11 10 10 9 9 8 8
9 9 9 9 11 12 10 9 9 9 10 9 8 8 8 7 7 7 7 7 7 9 9 10 11 10 8 5 1 4 5 7 6 5 6 9 10 11 10 12 13 5 9 8 7 9 8 7 9 15 19 17 16 18 21 24 27 26 25 26 21 17 18 18 17 19 23 23 21 21 20 18 17 15 14 13 14 13 12 11 11 10 10 10 9 9
9 10 12 11 10 11 12 9 8 8 9 10 9 8 8 7 6 7 7 7 7 9 9 6 4 6 7 1 7 8 7 6 5 6 5 5 7 11 11 10 11 5 7 7 7 9 8 8 12 15 16 17 16 17 21 27 29 28 29 29 23 19 18 19 20 19 19 21 22 22 22 21 20 18 16 15 15 13 12 11 11 10 10 10 10 9
9 8 11 13 9 12 14 13 10 9 10 11 10 9 9 7 6 6 6 6 7 7 7 7 5 7 6 1 8 8 6 3 3 5 3 2 4 6 7 8 8 4 4 6 6 8 8 9 14 16 14 14 17 19 22 24 23 25 29 29 25 22 20 20 21 20 19 20 21 23 24 24 23 21 17 15 15 14 12 12 11 10 10 9 10 10
11 8 9 14 12 13 16 15 13 10 9 9 9 10 9 7 7 5 5 5 4 5 5 6 6 4 2 3 5 5 5 6 5 5 5 2 1 2 3 6 7 5 4 4 5 7 8 10 15 17 13 11 15 20 21 20 20 21 22 22 22 22 21 20 20 21 22 20 20 24 27 26 24 21 16 14 14 14 11 12 11 10 10 9 10 11
9 7 7 13 13 13 14 14 14 11 7 5 8 10 9 8 8 7 6 5 4 6 6 6 6 3 5 3 3 5 6 7 6 5 6 4 2 2 1 2 4 5 6 6 6 6 8 10 13 16 15 13 16 18 18 19 19 18 16 16 20 21 21 21 20 21 23 22 21 26 29 27 25 22 16 14 15 14 12 12 11 10 10 10 10 11
6 6 6 11 12 11 11 13 15 14 10 5 6 7 8 9 8 5 6 6 6 8 7 8 10 5 4 3 0 4 5 7 6 6 6 6 5 5 5 4 3 3 3 4 6 6 7 7 9 12 13 14 17 19 19 19 17 16 15 16 19 22 22 23 23 23 24 23 24 28 30 28 27 24 20 16 15 14 13 13 12 11 10 10 10 10
5 6 7 11 12 11 11 11 12 15 15 11 6 5 5 7 6 6 6 6 7 8 6 9 10 4 1 2 2 1 3 6 6 5 5 6 8 7 5 5 3 3 3 3 5 6 5 5 6 9 11 13 16 18 18 19 18 16 16 16 19 22 22 23 25 27 27 25 25 29 30 29 29 27 22 18 15 14 14 13 12 12 11 11 10 10
4 6 5 9 10 10 10 8 8 10 13 13 10 7 6 6 5 5 5 5 7 7 6 9 8 1 4 3 4 2 4 5 4 4 5 6 9 10 6 3 2 4 4 4 5 5 4 5 8 9 9 10 12 14 15 17 18 18 17 18 19 20 20 22 25 28 29 27 25 26 27 27 28 27 22 18 16 15 14 13 13 12 12 11 10 11
5 6 5 7 9 9 8 8 10 10 10 11 9 8 8 6 5 5 4 4 7 6 5 7 5 3 3 3 3 4 3 4 4 3 5 8 11 12 11 9 8 8 8 8 7 5 4 5 8 9 6 4 4 5 9 12 16 18 17 18 19 19 21 22 25 27 28 27 25 25 25 24 25 26 22 18 17 16 15 14 13 13 12 11 10 11
5 6 6 6 7 8 9 11 13 12 10 10 9 10 10 8 6 7 6 6 6 6 6 5 1 4 3 3 3 3 3 5 6 5 6 10 12 12 12 12 11 10 10 10 9 8 8 7 7 6 4 4 1 4 5 8 12 15 17 17 17 19 21 23 24 26 26 25 24 24 24 22 22 24 22 19 17 17 15 15 14 13 12 11 11 11
5 5 8 7 6 8 8 9 9 7 8 10 9 8 9 9 8 8 6 5 5 6 8 6 3 3 2 3 4 5 5 7 9 9 9 11 12 12 11 11 11 10 10 10 9 9 9 9 9 8 6 2 4 6 6 7 9 10 14 17 18 19 22 22 23 23 22 22 22 22 23 22 20 22 22 19 18 17 16 15 14 13 12 11 11 11
5 5 7 8 7 6 3 5 7 6 8 9 8 7 9 8 8 7 3 4 6 5 6 6 3 3 2 2 5 6 7 8 10 10 10 10 10 11 11 10 9 9 9 9 10 9 9 9 9 8 4 2 5 5 7 10 13 14 14 13 15 18 18 18 20 21 19 18 20 22 23 23 21 22 22 20 19 18 17 15 14 13 12 12 11 11
5 6 7 7 7 6 5 8 9 8 9 8 8 9 9 9 11 7 3 2 7 6 6 6 2 4 5 5 6 7 7 9 10 11 11 10 9 10 9 9 8 8 8 9 9 9 9 9 9 9 7 4 2 3 6 7 10 12 7 5 7 12 15 16 18 19 17 17 21 23 23 23 23 24 23 21 20 18 16 16 14 13 12 12 11 10
5 6 7 7 8 7 7 6 4 5 8 8 8 5 4 9 13 8 4 6 7 6 7 6 1 5 6 6 8 7 8 10 10 10 10 10 10 10 8 8 7 7 8 9 9 8 9 9 10 12 12 11 11 9 8 5 5 5 2 1 5 10 13 15 15 16 18 21 23 21 20 21 22 23 22 20 19 18 16 16 15 13 12 12 11 10
2 4 5 6 6 4 3 3 3 4 5 4 5 5 0 9 11 7 7 6 4 3 3 4 3 7 7 7 8 8 8 8 9 9 10 9 9 9 8 8 7 7 8 8 8 9 10 11 11 12 13 13 14 15 16 14 6 1 1 2 2 5 9 11 15 20 23 23 21 19 18 20 19 19 21 20 18 18 16 15 14 13 12 12 11 11
3 6 6 6 6 4 2 2 4 5 4 4 4 6 4 7 8 6 5 2 3 5 2 4 3 8 7 7 7 8 8 7 8 9 9 8 8 8 8 9 9 9 9 9 10 11 11 11 12 13 14 14 14 15 18 20 16 7 3 2 2 3 4 8 18 26 25 20 18 17 17 18 16 16 19 19 18 18 17 15 15 13 11 11 10 10
5 5 4 5 6 2 4 4 3 3 2 1 2 2 3 0 1 1 2 4 3 2 2 4 5 7 7 6 6 7 7 7 8 8 7 7 8 9 9 10 10 10 10 10 10 11 11 11 12 13 15 15 15 16 16 18 20 18 14 10 5 4 6 8 19 26 22 18 18 17 16 16 15 14 17 19 18 18 17 16 15 13 12 11 10 9
3 2 2 6 6 0 2 3 4 1 0 4 6 7 5 5 6 7 7 7 5 6 7 8 8 8 7 5 6 6 5 6 7 7 8 8 9 10 10 10 10 10 10 10 10 10 11 11 12 14 16 17 17 17 16 15 16 17 17 17 10 7 9 12 19 20 16 17 18 18 18 17 15 14 15 17 17 17 17 16 15 13 12 11 10 8
3 1 1 3 5 4 3 3 3 1 1 5 11 12 10 8 7 7 8 8 6 6 8 8 7 6 4 4 5 5 5 6 8 8 9 9 9 10 10 10 10 9 9 9 10 10 10 11 13 14 16 17 18 17 16 15 14 13 14 17 17 15 13 14 17 14 12 16 16 17 18 16 15 15 14 14 15 16 15 15 15 13 12 11 10 8
3 2 0 1 5 5 5 5 5 4 3 7 12 14 13 10 8 7 8 9 7 4 4 5 3 3 4 4 5 5 7 8 9 9 9 9 9 10 10 9 9 8 9 9 9 10 10 11 13 14 16 17 17 17 16 14 14 15 15 16 18 19 18 18 16 14 13 13 14 16 17 16 15 16 15 13 14 14 15 15 16 14 12 12 10 9
1 3 2 1 4 4 4 5 5 6 6 3 8 10 10 9 8 5 7 9 10 8 2 1 3 5 6 5 5 6 8 9 9 9 8 8 9 10 10 9 8 8 9 9 9 10 10 11 13 15 16 16 17 18 17 15 15 17 16 17 19 22 23 23 22 21 19 17 17 17 18 18 17 18 18 16 14 15 16 16 16 15 16 15 12 11
2 1 1 1 2 3 4 5 5 6 5 1 4 7 7 8 8 7 7 8 9 8 6 6 7 7 6 6 7 8 9 10 10 9 9 8 8 8 9 9 9 9 9 9 9 10 11 12 13 14 14 14 15 16 16 17 19 18 17 18 22 24 24 24 24 24 23 21 19 18 18 19 19 18 18 18 17 17 16 16 15 14 14 15 13 12
2 2 1 0 1 1 4 5 6 5 2 2 4 8 8 5 6 6 6 9 10 8 7 8 8 7 7 8 9 8 9 10 11 11 11 10 8 8 8 9 9 9 9 9 10 10 11 13 13 13 13 12 12 13 14 16 18 19 19 22 25 26 25 25 25 24 23 21 19 18 18 19 19 17 16 18 18 16 12 11 11 10 9 9 9 10
1 0 1 1 2 2 4 5 4 3 4 4 3 8 9 5 5 4 4 9 11 9 6 6 7 7 8 9 8 8 9 10 11 11 11 10 10 9 9 9 9 10 10 10 11 12 13 13 14 14 13 13 12 13 13 13 14 17 20 23 25 27 28 27 26 25 23 21 19 19 18 18 19 18 17 17 15 13 11 9 9 9 9 9 8 8
2 1 0 2 4 4 3 3 4 6 5 6 4 6 7 4 4 4 1 6 10 9 6 5 6 7 7 7 7 7 7 6 8 9 10 10 10 10 10 10 10 10 11 12 13 14 14 14 15 15 15 16 17 17 15 13 12 14 18 19 21 26 29 28 26 25 23 21 20 21 20 19 19 18 18 18 17 15 15 13 12 11 10 11 11 11
0 2 2 2 4 4 5 6 4 5 3 6 6 5 5 2 2 3 1 3 7 8 7 4 6 6 6 6 6 4 2 1 4 7 8 9 9 10 10 11 12 12 13 13 14 15 16 16 17 17 17 18 19 18 17 15 14 15 18 18 18 22 26 26 25 24 23 21 20 21 22 21 20 19 18 18 17 17 17 16 14 13 11 11 12 11
4 2 1 3 4 2 3 4 3 3 3 6 7 7 6 2 1 3 3 2 6 7 5 3 4 5 5 5 3 1 3 1 3 5 6 7 9 10 9 10 12 13 13 14 14 14 15 15 17 19 19 19 18 18 18 17 17 18 19 19 19 20 22 22 21 20 19 19 20 21 22 21 20 20 19 17 16 15 16 16 15 13 12 13 12 11
4 1 1 4 3 2 4 4 4 4 4 8 9 7 5 2 2 3 2 2 6 7 2 3 3 5 5 3 3 5 4 2 4 5 6 7 10 11 11 11 12 12 13 13 14 14 14 15 17 19 19 18 17 16 16 17 19 20 20 20 20 21 20 18 17 17 17 17 17 19 20 20 19 18 18 17 16 15 15 15 14 14 14 13 12 11
2 1 2 1 2 5 7 6 5 4 4 10 10 6 6 2 4 2 2 2 6 6 2 3 4 6 4 2 4 4 5 6 8 9 7 7 9 10 11 11 12 13 13 14 14 14 15 17 18 18 18 17 17 16 15 16 18 19 19 19 20 19 18 16 16 16 17 17 17 17 17 17 16 16 16 16 16 15 14 14 14 14 12 10 9 9
3 2 2 2 2 2 6 7 6 5 6 13 10 5 6 4 2 2 4 4 5 3 4 5 5 5 3 5 6 6 7 10 11 9 7 7 7 8 10 11 11 12 13 14 15 15 15 17 19 20 19 19 18 16 15 16 18 17 18 19 19 17 15 15 15 15 16 16 17 17 16 16 15 14 14 13 13 13 13 12 11 11 9 8 7 7
4 3 3 5 4 2 5 6 4 3 7 14 10 4 6 6 2 2 4 4 5 7 6 5 5 6 6 8 9 9 10 11 10 9 9 8 7 8 9 9 10 11 12 13 14 14 14 15 17 18 17 19 20 19 17 17 17 16 18 19 17 15 14 14 14 14 15 15 15 15 15 14 14 13 12 12 11 10 10 9 8 7 6 6 5 5
7 4 3 5 5 3 4 5 4 2 6 10 9 5 5 6 3 2 3 4 7 7 6 7 7 8 9 10 10 10 10 10 10 10 9 8 8 8 9 9 9 10 11 11 11 11 12 13 14 14 14 15 18 20 20 19 17 16 17 16 14 13 14 14 13 14 14 14 14 14 13 13 12 11 11 10 10 9 9 8 6 5 5 3 3 3
8 8 8 8 8 7 7 5 5 4 5 8 8 7 7 7 6 5 6 6 7 7 7 7 8 10 11 10 10 10 9 9 10 10 8 8 8 8 8 9 9 9 9 10 10 10 11 12 12 13 12 12 14 16 17 16 16 16 16 14 13 13 13 13 13 14 14 14 13 12 11 11 12 11 11 10 9 9 8 7 6 5 4 4 3 3
8 9 9 9 10 12 11 8 7 7 8 9 9 8 9 8 7 7 8 7 8 8 8 8 9 10 10 10 10 10 9 9 10 9 8 7 7 8 9 9 9 9 9 9 9 9 10 11 11 11 11 11 11 13 13 12 13 14 14 13 13 13 12 13 13 13 12 13 13 12 12 11 11 11 11 10 10 9 9 8 7 6 5 5 4 3
8 8 8 7 8 8 7 7 9 9 9 10 10 10 10 10 8 8 8 8 8 9 9 9 9 9 10 10 10 9 9 9 9 8 7 7 7 8 8 8 8 9 9 8 7 7 8 9 9 9 10 10 10 10 10 10 10 11 11 11 11 11 11 11 11 10 11 11 11 11 12 11 11 11 11 11 11 10 10 9 9 9 8 7 6 5
5 5 7 9 10 8 8 9 10 11 11 11 10 9 9 10 10 9 9 9 10 11 12 12 10 9 9 9 9 9 8 7 7 8 8 7 6 7 7 7 7 7 7 6 6 7 8 8 8 9 9 9 9 8 8 9 9 9 9 9 8 8 9 9 9 9 9 10 10 10 10 10 11 11 11 13 13 13 12 10 9 10 10 10 8 6
4 5 8 11 11 9 9 10 9 10 12 12 11 11 10 10 11 11 11 12 12 13 13 14 13 12 10 9 8 8 7 6 6 5 8 9 9 8 7 7 6 5 5 5 5 6 7 6 7 8 8 8 8 8 8 8 8 9 9 8 8 7 7 7 8 8 9 9 9 9 9 10 10 10 10 10 12 14 16 14 12 10 10 10 9 8
5 5 5 7 7 6 7 7 5 6 8 8 10 11 11 11 11 12 12 12 12 13 13 13 14 13 12 12 11 10 8 9 12 12 9 7 8 9 8 6 6 5 5 5 4 5 5 5 5 6 6 7 7 7 8 9 9 10 10 9 9 8 7 6 6 8 9 9 9 9 9 9 9 8 8 7 7 9 12 15 15 14 12 12 11 11
7 5 3 4 7 7 7 7 6 6 8 8 9 10 10 10 10 11 12 12 11 11 12 11 12 12 11 12 13 11 9 9 11 12 11 10 8 6 5 5 5 5 5 5 5 4 5 5 5 5 5 6 6 6 7 8 8 8 9 9 10 10 9 8 7 7 9 9 9 8 7 8 7 7 6 6 5 5 6 8 12 14 15 15 14 13
Wind_Direction
194 208 208 216 220 212 216 224 240 260 300 298 277 240 247 252 237 224 190 169 198 250 247 241 250 251 247 252 243 206 201 210 221 228 208 202 216 213 199 174 172 187 186 201 196 185 190 185 181 182 180 182 180 179 182 188 193 185 178 181 179 174 174 180 178 174 181 183 179 183 186 187 192 198 202 201 199 195 200 209 199 182 184 182 177 183
195 220 221 217 226 226 223 225 240 274 292 263 267 255 242 245 246 226 179 184 210 235 254 247 247 251 247 253 255 231 213 210 221 223 209 217 229 234 212 170 168 184 187 199 189 190 202 191 182 181 175 177 178 183 188 192 197 191 186 185 177 174 180 186 182 176 181 184 186 188 185 182 185 191 196 198 201 217 224 209 185 180 186 184 182 184
203 228 230 223 226 230 239 234 223 242 255 250 254 255 249 240 245 228 157 194 233 235 256 251 248 251 245 244 251 247 230 213 224 224 216 220 221 233 233 181 158 181 192 194 186 198 209 198 188 187 181 179 177 183 192 196 195 191 193 190 178 177 184 187 184 184 185 187 194 189 181 176 169 174 188 195 200 225 237 207 183 189 190 185 186 185
212 222 225 224 217 210 216 220 215 223 240 247 245 246 245 241 247 241 186 213 228 237 263 268 263 255 251 243 241 245 236 219 222 221 220 226 217 219 228 186 145 182 206 196 192 202 209 203 196 192 187 185 183 188 196 200 195 189 194 194 183 177 184 188 187 190 190 191 193 179 171 171 159 169 187 198 198 209 227 215 199 194 188 185 185 184
239 228 212 212 186 186 206 203 215 228 230 231 238 247 248 250 257 251 218 224 224 232 244 262 270 252 246 244 238 238 231 221 223 224 219 224 225 224 231 198 156 177 203 195 193 205 209 203 198 197 194 189 190 195 199 201 198 194 194 194 184 172 179 189 187 187 186 185 184 168 161 165 159 172 185 194 189 195 222 220 201 188 180 181 179 180
244 214 148 197 173 191 217 210 212 223 239 231 224 237 248 261 271 262 247 249 248 246 225 222 245 249 233 234 232 227 224 219 220 227 222 219 221 223 234 217 167 169 194 194 190 201 210 206 199 199 198 195 195 200 202 200 199 199 196 191 179 167 175 184 180 180 181 183 180 165 160 159 160 176 181 185 180 188 220 215 187 178 175 175 173 176
240 185 158 205 201 207 223 221 214 213 238 247 223 228 239 256 267 256 253 253 250 266 239 205 233 265 245 235 228 220 225 221 210 220 229 224 220 219 227 225 186 170 183 191 192 201 210 209 203 200 201 203 202 201 201 200 198 199 195 178 170 173 177 181 180 178 176 180 175 158 158 158 164 177 175 186 185 195 220 204 166 169 172 169 169 170
232 199 175 212 216 217 224 220 215 211 227 246 231 223 231 242 251 245 246 250 249 264 254 195 231 266 264 251 228 216 232 231 211 215 228 226 225 224 225 231 214 176 168 180 194 206 212 210 209 205 202 205 203 197 194 194 192 190 189 178 177 181 174 173 177 172 167 169 160 151 161 168 170 170 172 190 198 205 215 194 163 168 168 164 166 167
200 213 198 207 213 216 220 218 212 208 228 248 235 220 247 248 250 245 240 242 245 253 246 217 227 252 262 256 231 216 230 236 227 222 223 223 225 225 223 231 228 178 162 177 188 203 217 214 212 210 208 211 205 186 168 161 146 152 172 178 179 173 160 162 164 160 166 167 153 156 169 177 172 172 184 187 194 208 204 178 166 168 162 164 165 168
184 212 207 203 214 219 219 224 209 192 222 253 237 215 246 252 250 247 244 244 240 245 252 241 233 240 255 255 238 223 220 224 236 234 228 234 235 239 238 237 235 203 169 172 181 199 217 216 215 213 207 146 93 97 108 131 135 123 147 168 177 172 163 166 165 166 173 167 156 166 176 182 179 178 180 172 189 210 196 169 169 170 162 165 167 168
155 153 212 217 223 227 223 228 218 200 220 253 254 226 235 236 238 240 242 250 248 239 243 248 245 243 251 256 262 269 229 218 240 266 357 344 326 288 287 273 252 220 164 165 179 191 211 218 220 190 108 81 78 86 104 150 169 149 148 173 186 185 178 174 173 175 174 165 164 170 171 178 185 181 165 163 195 205 184 173 172 169 168 169 168 166
188 161 208 224 225 231 229 226 218 209 219 232 232 234 234 223 224 229 226 233 247 245 240 244 244 237 240 250 256 55 53 45 24 42 358 333 331 309 294 279 264 206 145 183 180 170 194 200 166 102 104 104 101 113 129 152 165 163 174 189 191 188 185 180 178 175 169 166 168 167 165 169 179 176 159 168 201 197 178 180 175 169 171 169 171 171
213 204 203 200 213 224 227 222 207 201 214 223 223 229 234 224 215 226 228 217 228 245 249 253 249 235 237 257 96 96 67 36 21 39 13 334 314 291 275 264 261 193 159 207 184 160 179 162 124 109 116 129 140 148 144 146 157 164 179 193 194 189 186 182 180 174 169 168 167 167 169 169 169 167 163 178 199 192 182 182 176 176 175 170 175 177
211 205 200 198 200 207 219 220 199 195 208 214 216 221 227 225 217 226 235 229 231 241 238 240 258 243 241 288 62 73 63 30 17 56 36 309 266 258 257 254 257 216 161 199 192 164 164 147 131 125 126 129 137 151 152 155 162 168 180 190 191 189 187 184 180 173 171 171 168 168 168 167 169 169 173 188 196 189 185 182 181 184 178 173 175 175
219 208 198 204 193 185 207 225 219 205 205 209 217 227 230 230 233 238 241 239 243 245 221 202 223 247 244 84 77 87 99 90 49 67 73 258 224 230 247 239 234 211 148 176 176 153 150 149 139 137 139 137 139 150 159 165 167 172 184 186 183 186 188 183 178 172 171 170 168 168 165 168 175 174 181 198 194 187 187 183 184 186 180 176 174 172
230 227 195 203 204 189 198 220 235 232 214 204 212 227 232 229 233 247 268 278 292 281 236 207 228 240 156 105 95 97 101 99 85 75 75 38 308 220 209 194 184 166 151 166 166 154 152 154 147 146 149 146 148 156 163 171 172 177 186 180 173 181 183 177 173 170 169 166 165 167 167 172 175 173 188 204 189 183 188 183 183 186 180 173 170 168
226 233 191 194 206 204 200 210 225 238 238 208 208 223 228 228 237 249 252 256 267 267 258 240 241 191 145 167 119 96 81 80 88 86 81 73 13 341 13 172 165 150 154 165 169 160 152 160 159 151 152 157 157 158 164 173 178 182 187 176 168 173 178 176 171 168 168 165 164 167 170 173 172 170 185 194 182 180 185 182 182 181 175 170 168 166
230 243 197 191 205 207 211 216 215 223 237 232 221 226 223 226 240 255 245 231 226 242 250 243 243 223 181 214 100 93 83 76 79 73 69 80 72 30 4 348 5 58 102 130 133 132 141 163 159 141 152 168 161 159 166 173 180 185 188 182 172 171 176 177 172 169 169 166 167 170 172 174 171 170 177 182 179 180 181 180 179 176 171 167 166 165
231 247 197 199 214 199 201 223 215 211 221 231 246 252 239 234 224 215 229 235 231 237 242 240 244 254 47 90 114 70 62 76 85 85 74 72 78 63 15 334 340 49 62 88 101 105 116 130 122 131 162 174 160 158 165 171 178 186 189 188 181 177 177 176 172 171 170 169 169 172 176 176 174 174 176 175 176 177 177 177 174 172 169 164 166 166
217 252 206 199 215 190 181 215 218 201 207 225 246 249 241 250 241 225 230 239 240 239 240 244 238 180 52 71 124 102 60 76 86 96 94 79 82 83 61 10 22 60 58 61 70 75 82 93 103 123 158 166 157 160 166 171 177 181 187 190 187 183 179 176 174 171 172 172 169 172 176 176 177 179 173 168 172 175 175 175 172 171 169 166 167 168
199 243 227 193 199 188 181 204 215 206 198 209 228 230 226 235 241 237 238 250 259 257 246 250 244 122 70 23 88 99 88 92 87 88 85 70 69 69 56 43 40 40 43 41 33 33 43 74 105 124 146 141 141 169 169 174 178 178 184 190 188 185 181 179 177 173 174 173 169 170 172 170 174 177 170 164 170 173 174 175 172 171 171 170 170 170
203 226 231 207 191 205 211 206 211 219 214 208 213 222 226 229 233 233 224 223 240 258 256 244 210 85 56 11 44 81 86 71 59 58 72 64 59 60 53 42 37 34 38 37 26 24 31 44 75 92 94 84 9 273 221 199 191 181 182 185 186 188 184 180 177 174 174 172 165 164 167 167 169 171 166 162 167 173 176 175 173 173 174 175 175 174
210 225 230 222 209 221 217 196 205 227 237 232 229 230 227 225 234 242 242 242 245 269 279 254 180 106 45 3 39 67 72 60 50 52 71 70 60 58 54 42 34 32 34 35 29 27 28 35 51 54 42 44 242 250 240 233 228 212 196 186 184 189 186 179 174 171 169 167 162 158 163 165 165 165 164 164 168 174 178 176 173 173 175 178 178 179
199 232 233 227 227 233 201 173 198 220 232 238 240 239 235 233 239 237 238 293 283 280 293 275 216 142 125 90 66 70 72 64 55 50 57 67 66 60 53 42 34 32 33 31 29 29 30 33 51 67 60 252 238 241 232 228 233 230 215 198 190 186 182 174 170 170 166 160 157 159 165 169 168 166 165 166 171 174 176 174 169 170 174 178 180 180
183 224 227 223 229 235 215 198 199 207 218 228 234 239 246 250 249 236 167 229 262 247 243 259 251 114 131 131 97 86 83 71 61 53 48 52 60 60 57 50 41 37 38 35 31 33 38 38 43 50 39 16 357 298 249 228 233 233 225 216 196 178 177 175 168 165 160 155 157 162 169 173 171 167 166 167 169 171 172 168 165 169 171 174 178 177
200 228 230 230 233 230 230 213 180 212 227 221 219 230 291 274 260 258 230 224 247 249 246 267 313 108 121 113 95 82 79 74 64 58 55 51 53 55 53 52 47 44 42 39 35 30 31 37 42 42 33 27 25 0 329 320 288 275 320 302 199 179 180 175 159 156 156 157 161 163 166 171 172 170 167 164 164 166 168 164 163 166 165 169 175 174
250 253 246 259 262 243 266 332 352 289 275 255 210 168 278 275 267 271 256 243 272 284 289 353 72 135 127 94 80 62 58 68 62 57 55 51 53 55 52 50 49 47 43 38 33 24 21 26 31 34 33 31 32 18 358 352 346 294 322 297 243 191 187 169 148 153 160 160 160 159 158 163 168 168 164 160 160 163 163 161 160 160 161 167 170 170
252 240 225 249 264 229 166 22 332 310 337 326 246 174 176 252 257 251 251 277 318 268 259 39 103 145 117 69 61 51 43 53 55 53 52 50 53 54 50 48 45 43 40 34 29 23 18 20 21 21 22 24 33 34 17 4 5 20 33 347 28 104 153 152 142 147 153 154 154 154 154 154 155 158 158 157 158 161 161 160 159 159 158 160 162 168
253 241 208 227 247 222 110 93 22 338 36 67 260 159 126 255 338 0 14 32 358 277 136 141 172 142 101 69 59 47 35 43 52 55 55 53 58 57 52 48 43 38 37 33 30 25 18 19 20 17 18 21 27 37 34 17 11 17 22 16 26 81 78 115 142 147 148 150 153 155 153 146 143 150 155 155 158 162 163 160 159 157 155 152 155 165
302 261 222 236 236 180 74 101 88 29 178 90 45 20 33 58 56 48 36 36 49 74 101 132 136 106 80 66 64 51 38 50 55 57 57 53 56 58 53 48 43 40 39 33 29 27 21 20 21 18 19 21 22 28 33 26 18 19 23 24 34 60 70 111 142 150 153 157 158 155 149 140 135 138 146 152 157 159 159 159 157 153 151 150 149 155
343 209 174 259 247 223 223 203 121 61 281 77 49 22 17 30 39 42 31 23 44 89 113 125 116 96 77 69 73 67 60 62 55 50 51 49 51 57 56 50 44 39 38 33 28 27 24 23 23 21 21 22 22 24 28 27 24 26 33 39 50 65 83 115 132 133 140 151 151 146 143 142 139 134 133 142 150 152 154 155 153 148 143 142 141 144
314 280 64 281 255 228 198 198 189 188 164 84 49 22 16 18 19 40 45 28 18 38 131 145 122 101 106 94 86 77 64 59 52 45 45 45 49 55 56 52 45 39 36 32 28 27 25 25 24 22 23 25 26 28 30 31 26 27 38 47 54 66 82 98 101 95 102 120 125 125 127 130 132 127 122 125 130 131 132 134 134 131 124 120 120 127
274 280 279 270 265 240 174 168 180 194 192 112 38 10 8 15 12 38 60 40 20 13 29 102 66 87 117 118 98 79 63 55 48 40 39 43 48 53 55 53 47 43 39 34 31 28 26 29 27 25 26 29 32 35 37 44 43 36 41 55 64 72 77 83 89 88 88 101 113 115 116 116 113 111 113 114 113 114 117 118 117 118 118 118 118 122
150 223 282 351 272 227 159 145 167 202 212 154 33 4 2 13 14 31 52 37 24 27 50 73 78 86 98 89 76 69 62 59 55 46 38 39 46 52 53 51 46 44 42 38 36 31 28 31 30 28 31 33 36 40 44 53 59 55 51 60 72 77 75 76 83 83 81 88 100 106 111 112 107 108 115 121 122 121 118 115 110 109 115 119 118 117
150 198 218 109 273 216 157 167 194 206 182 100 42 7 0 4 16 38 62 46 31 31 52 77 88 84 83 87 85 80 74 68 62 54 46 42 47 53 53 51 49 49 47 42 40 34 30 33 32 29 31 33 38 47 51 54 60 62 60 62 70 75 76 75 77 77 76 78 83 92 103 107 107 110 118 125 131 131 122 116 115 114 118 122 116 112
116 129 194 197 210 192 188 197 189 145 97 96 53 6 1 357 6 29 77 52 27 12 32 74 92 93 98 106 104 100 97 83 66 54 49 48 51 55 59 58 55 54 52 50 47 39 30 32 35 33 33 35 38 45 51 55 60 65 65 64 66 70 74 73 72 73 74 72 74 82 92 101 106 111 115 118 125 129 122 116 117 123 135 145 143 136
125 112 113 207 204 179 143 95 123 144 107 66 38 8 6 356 344 343 61 50 24 6 18 70 103 107 107 113 116 124 126 101 67 47 43 49 55 59 62 60 57 57 53 48 45 38 29 29 34 38 41 42 39 39 43 53 64 70 71 67 65 67 69 67 65 67 67 66 70 79 85 92 97 101 106 110 110 110 108 103 101 107 120 132 134 135
270 199 153 193 218 190 140 122 140 164 105 42 19 10 18 4 304 302 270 59 31 13 15 58 104 110 115 124 125 138 187 96 65 46 39 49 59 61 61 58 55 52 44 37 36 34 29 28 32 37 42 45 42 39 40 49 61 68 67 65 64 65 65 63 61 64 65 63 68 78 85 91 95 94 96 100 102 104 105 104 101 99 103 113 117 117
318 256 205 242 249 237 166 149 119 103 76 25 3 2 10 31 198 249 226 96 27 9 20 72 107 118 129 132 113 3 312 349 92 73 53 55 57 55 55 54 52 48 40 34 34 32 28 31 36 37 38 41 41 38 40 48 57 60 58 56 58 60 60 59 59 62 65 65 68 75 81 87 92 96 95 92 91 96 104 108 108 108 113 119 119 117
298 205 206 267 243 122 105 102 76 82 61 7 351 349 2 36 195 239 211 82 6 350 33 100 124 135 133 109 31 6 358 43 112 113 92 73 62 53 48 48 46 44 41 37 37 36 33 36 40 36 30 30 33 35 39 46 53 56 54 52 54 56 55 55 56 58 61 63 65 68 72 76 80 86 93 94 92 95 103 108 111 115 119 120 119 123
306 93 121 203 158 115 114 107 89 95 43 357 343 346 2 327 225 263 34 12 327 335 62 105 133 144 131 52 48 46 44 79 110 117 99 76 67 58 52 51 49 46 45 40 37 39 40 42 45 40 32 30 33 33 38 47 52 54 54 53 52 52 52 52 55 57 58 61 63 64 66 69 71 73 79 85 90 94 100 105 107 107 106 106 108 118
340 336 103 99 48 87 113 108 105 107 36 354 339 349 3 333 235 32 6 312 316 5 98 119 131 129 75 60 87 99 95 98 105 106 92 78 73 66 58 57 55 53 52 46 40 42 45 48 50 46 39 39 42 39 40 49 53 52 52 51 47 45 47 51 53 55 58 60 62 63 64 66 68 69 70 73 80 86 89 94 98 96 93 93 97 104
347 317 82 61 16 38 93 87 93 101 21 358 351 7 14 7 36 12 334 338 25 55 81 86 86 86 75 85 102 108 107 104 100 99 97 87 76 68 61 57 54 52 53 51 48 47 48 50 50 46 38 41 48 50 47 48 50 50 51 50 42 38 45 50 51 55 59 61 63 64 65 65 66 67 67 68 73 79 82 86 91 91 93 102 111 119
360 348 67 48 7 12 66 65 56 41 9 7 18 43 32 24 34 6 355 32 47 56 70 68 67 80 90 100 105 103 103 102 96 96 95 86 78 72 63 57 56 54 53 53 53 53 53 54 54 49 42 39 45 50 50 47 46 46 47 45 38 36 42 47 50 53 56 59 63 64 65 65 65 64 65 66 68 73 75 78 83 88 91 98 113 126
38 54 76 65 52 59 73 86 84 57 35 35 42 50 52 51 53 54 56 54 46 51 69 76 77 85 93 100 100 97 96 95 94 93 88 81 79 76 69 63 60 60 61 59 56 57 61 65 64 59 53 45 43 49 50 47 46 47 46 42 37 37 41 44 47 50 50 53 56 59 62 66 65 63 63 64 65 66 66 65 68 72 74 74 74 77
90 92 91 88 92 88 79 81 86 74 65 64 58 53 54 56 60 66 67 62 55 57 67 73 73 79 87 95 98 96 96 96 93 90 87 86 80 73 72 70 65 65 67 63 59 61 67 71 71 67 61 54 50 53 53 49 48 49 47 45 42 41 42 44 46 48 50 52 53 54 56 60 62 62 61 61 63 64 60 58 58 55 52 55 59 60
96 88 86 93 105 99 81 79 81 74 72 75 72 67 63 62 66 71 72 74 75 75 80 84 84 86 91 96 99 103 108 111 109 103 96 93 89 82 76 71 65 66 66 61 58 62 66 68 69 70 67 59 52 52 54 54 54 54 53 50 47 45 46 49 50 50 52 54 56 58 58 58 61 64 60 57 57 57 55 53 53 53 48 39 34 37
76 63 71 77 83 92 98 98 89 78 72 69 68 69 68 69 74 81 87 91 89 87 85 85 86 89 91 96 107 115 117 118 124 128 123 111 99 93 87 83 77 67 60 59 59 61 63 61 59 61 64 63 59 57 57 56 56 59 60 55 50 49 48 48 49 50 52 54 55 59 61 60 63 67 67 63 59 55 51 48 48 52 49 38 31 32
97 94 90 90 94 101 109 112 107 93 80 70 69 75 77 79 84 89 95 99 100 99 93 84 80 76 67 66 83 95 88 64 55 89 125 129 120 111 104 100 99 87 72 64 58 61 64 65 63 60 55 53 54 57 60 59 56 55 57 55 51 49 47 48 52 51 48 48 50 53 56 57 58 63 69 71 67 61 55 51 50 54 52 45 48 54
85 97 109 112 105 99 108 119 117 98 85 77 78 82 85 89 93 93 95 97 98 102 102 97 92 82 65 54 54 57 56 42 27 29 49 83 103 116 123 120 112 109 108 103 88 79 81 80 81 80 71 62 56 50 50 52 51 49 49 47 44 42 39 42 54 54 49 46 44 44 49 55 57 58 63 71 77 75 67 58 53 54 55 55 58 63
44 38 52 99 94 89 99 106 100 93 92 91 90 87 87 91 91 89 91 93 95 102 105 104 103 97 82 70 63 58 59 53 38 34 31 22 28 65 102 114 110 106 112 117 111 97 88 76 71 74 78 80 79 69 60 55 49 45 44 41 40 40 34 32 41 50 53 50 39 29 37 53 55 52 58 64 69 87 100 87 69 57 51 52 56 59